Погода в Липше

Россия / Республика Марий Эл     56°15′14″N   47°27′37″E
темп.,
°C
ветер,
м/с
пор.,
м/с
влажн.,
%
обл.,
%
осадки,
мм/ч
давл.,
гПа
погр.,
м
15 мая, сб
сб1500:00+17ю2287100 0.0 101712
03:00+17юв1187100 0.1 101723
06:00+18вюв2688100 0.8 1017167
09:00+24ю5952100 0.8 1016604
12:00+27ююз61234100 0.0 10161179
15:00+28ююз6133397 0.0 10151539
18:00+25ю4115126 0.0 1015611
21:00+19ю311665 0.0 1015226
16 мая, вс
вс1600:00+16ю3117027 0.0 1015195
03:00+16ю287092 0.0 1015139
06:00+18ююз256819 0.0 1016173
09:00+24ююз355674 0.0 1015728
12:00+26юз4750100 0.0 10161397
15:00+26юз4750100 0.0 10151709
18:00+23з3667100 0.1 1015316
21:00+19зюз118278 0.2 101514
17 мая, пн
пн1700:00+17з1191100 1.2 101614
03:00+16ююз1192100 1.2 101712
06:00+19юз118199 0.0 1018119
09:00+24зюз13596 0.0 1018780
12:00+28ююз35376 0.0 10171437
15:00+28ююз35405 0.0 10171466
18:00+27юв11517 0.0 101611
21:00+20вюв12685 0.0 101711
18 мая, вт
вт1800:00+18ююз127337 0.0 101714
03:00+16ю22675 0.0 101718
06:00+20ююв23593 0.0 101793
09:00+26юв34405 0.0 1016523
12:00+29ю46305 0.0 10162004
15:00+30ю452383 0.0 10152664
18:00+25юв3748100 0.0 1015193
21:00+20ююв3559100 0.0 101586
19 мая, ср
ср1900:00+18юв3662100 0.0 101593
03:00+17юв356096 0.0 101486
06:00+19вюв2859100 0.0 1014190
09:00+26юв484136 0.0 1013463
12:00+29юв6113013 0.0 10122471
15:00+30юв7103339 0.0 10102899
18:00+26юв714414 0.0 10071242
21:00+18юв81874100 2.5 1011724